• în România
  • Lista ţărilor
  • Pe 7 zile
  • Temperatura apei
  • Hartă satelitară
  • Meteo pe hartă
  • Widget-uri
  • user-avatar
    Intrare

    Meteo pe oră la Kalmazan

    Astăzi, 20 Octombrie, Sâmbătă

    Timp Temperatura Precipitaţii Vânt Presiune Umiditate
    00:00 +7°C° 0 mm 4 m/s 742 mmHg 93%
    01:00 +8°C° 0 mm 3 m/s 742 mmHg 94%
    02:00 +8°C° 0.1 mm 3 m/s 742 mmHg 95%
    03:00 +8°C° 0.1 mm 3 m/s 742 mmHg 95%
    04:00 +8°C° 0 mm 4 m/s 741 mmHg 96%
    05:00 +8°C° 0.2 mm 4 m/s 741 mmHg 96%
    06:00 +9°C° 0.2 mm 3 m/s 741 mmHg 96%
    07:00 +9°C° 0.2 mm 3 m/s 741 mmHg 97%
    08:00 +9°C° 0.3 mm 3 m/s 741 mmHg 94%
    09:00 +9°C° 0.3 mm 3 m/s 741 mmHg 92%
    10:00 +10°C° 0 mm 3 m/s 741 mmHg 87%
    11:00 +10°C° 0.1 mm 3 m/s 741 mmHg 80%
    12:00 +11°C° 0.1 mm 3 m/s 741 mmHg 73%
    13:00 +11°C° 0.1 mm 3 m/s 741 mmHg 67%
    14:00 +11°C° 0.1 mm 3 m/s 741 mmHg 68%
    15:00 +10°C° 0.1 mm 3 m/s 742 mmHg 69%
    16:00 +10°C° 0.1 mm 3 m/s 742 mmHg 71%
    17:00 +9°C° 0 mm 3 m/s 742 mmHg 75%
    18:00 +8°C° 0 mm 3 m/s 742 mmHg 78%
    19:00 +7°C° 0 mm 3 m/s 743 mmHg 82%
    20:00 +5°C° 0 mm 3 m/s 743 mmHg 84%
    21:00 +5°C° 0 mm 3 m/s 743 mmHg 85%
    22:00 +4°C° 0 mm 3 m/s 744 mmHg 86%
    23:00 +4°C° 0 mm 3 m/s 744 mmHg 88%

    Mâine, 21 Octombrie, Duminică

    Timp Temperatura Precipitaţii Vânt Presiune Umiditate
    00:00 +3°C° 0 mm 3 m/s 744 mmHg 90%
    01:00 +3°C° 0 mm 3 m/s 744 mmHg 92%
    02:00 +3°C° 0 mm 3 m/s 745 mmHg 93%
    03:00 +2°C° 0 mm 3 m/s 745 mmHg 94%
    04:00 +2°C° 0 mm 3 m/s 746 mmHg 94%
    05:00 +1°C° 0 mm 3 m/s 746 mmHg 95%
    06:00 +1°C° 0 mm 3 m/s 746 mmHg 95%
    07:00 +1°C° 0 mm 3 m/s 747 mmHg 95%
    08:00 +1°C° 0 mm 3 m/s 747 mmHg 90%
    09:00 +2°C° 0 mm 3 m/s 748 mmHg 85%
    10:00 +3°C° 0 mm 4 m/s 748 mmHg 80%
    11:00 +3°C° 0 mm 4 m/s 749 mmHg 75%
    12:00 +4°C° 0 mm 4 m/s 749 mmHg 71%
    13:00 +4°C° 0 mm 4 m/s 750 mmHg 66%
    14:00 +4°C° 0 mm 4 m/s 750 mmHg 66%
    15:00 +4°C° 0 mm 4 m/s 750 mmHg 65%
    16:00 +3°C° 0 mm 4 m/s 751 mmHg 65%
    17:00 +3°C° 0 mm 3 m/s 751 mmHg 68%
    18:00 +2°C° 0 mm 3 m/s 751 mmHg 70%
    19:00 +3°C° 0 mm 2 m/s 752 mmHg 73%
    20:00 +2°C° 0 mm 2 m/s 752 mmHg 75%
    21:00 +2°C° 0 mm 2 m/s 752 mmHg 78%
    22:00 +2°C° 0 mm 2 m/s 753 mmHg 80%
    23:00 +1°C° 0 mm 2 m/s 753 mmHg 83%

    Poimâine, 22 Octombrie, Luni

    Timp Temperatura Precipitaţii Vânt Presiune Umiditate
    00:00 +1°C° 0 mm 2 m/s 753 mmHg 86%
    01:00 -1°C° 0 mm 2 m/s 753 mmHg 90%
    02:00 -1°C° 0 mm 2 m/s 754 mmHg 91%
    03:00 -1°C° 0 mm 2 m/s 754 mmHg 91%
    04:00 -1°C° 0 mm 2 m/s 754 mmHg 92%
    05:00 -1°C° 0 mm 2 m/s 754 mmHg 92%
    06:00 -1°C° 0 mm 2 m/s 754 mmHg 92%
    07:00 0°C° 0 mm 1 m/s 754 mmHg 92%
    08:00 +1°C° 0 mm 2 m/s 755 mmHg 87%
    09:00 +2°C° 0 mm 2 m/s 755 mmHg 82%
    10:00 +3°C° 0 mm 2 m/s 755 mmHg 76%
    11:00 +4°C° 0 mm 2 m/s 755 mmHg 73%
    12:00 +4°C° 0 mm 2 m/s 755 mmHg 69%
    13:00 +5°C° 0 mm 2 m/s 755 mmHg 65%
    14:00 +5°C° 0 mm 2 m/s 754 mmHg 67%
    15:00 +5°C° 0 mm 2 m/s 754 mmHg 70%
    16:00 +4°C° 0 mm 2 m/s 754 mmHg 72%
    17:00 +4°C° 0 mm 2 m/s 754 mmHg 75%
    18:00 +3°C° 0 mm 2 m/s 754 mmHg 78%
    19:00 +1°C° 0 mm 3 m/s 754 mmHg 81%
    20:00 +1°C° 0 mm 3 m/s 753 mmHg 81%
    21:00 +1°C° 0 mm 3 m/s 753 mmHg 81%
    22:00 0°C° 0 mm 4 m/s 753 mmHg 82%
    23:00 0°C° 0 mm 4 m/s 753 mmHg 81%

    23 Octombrie, Marţi

    Timp Temperatura Precipitaţii Vânt Presiune Umiditate
    00:00 0°C° 0 mm 4 m/s 752 mmHg 81%
    01:00 -1°C° 0 mm 4 m/s 752 mmHg 81%
    02:00 -1°C° 0 mm 4 m/s 752 mmHg 81%
    03:00 -1°C° 0 mm 4 m/s 752 mmHg 82%
    04:00 -1°C° 0 mm 4 m/s 751 mmHg 82%
    05:00 -1°C° 0 mm 5 m/s 751 mmHg 83%
    06:00 -1°C° 0 mm 5 m/s 751 mmHg 83%
    07:00 -1°C° 0 mm 5 m/s 750 mmHg 83%
    08:00 0°C° 0 mm 5 m/s 750 mmHg 79%
    09:00 +1°C° 0 mm 5 m/s 750 mmHg 75%
    10:00 +2°C° 0 mm 6 m/s 750 mmHg 71%
    11:00 +3°C° 0 mm 6 m/s 750 mmHg 67%
    12:00 +4°C° 0 mm 6 m/s 749 mmHg 64%
    13:00 +5°C° 0 mm 6 m/s 749 mmHg 60%
    14:00 +5°C° 0 mm 6 m/s 748 mmHg 60%
    15:00 +5°C° 0 mm 6 m/s 748 mmHg 61%
    16:00 +6°C° 0 mm 5 m/s 748 mmHg 61%
    17:00 +5°C° 0 mm 5 m/s 747 mmHg 62%
    18:00 +3°C° 0 mm 5 m/s 747 mmHg 63%
    19:00 +3°C° 0 mm 5 m/s 747 mmHg 64%
    20:00 +3°C° 0 mm 5 m/s 746 mmHg 65%
    21:00 +3°C° 0 mm 5 m/s 746 mmHg 66%
    22:00 +3°C° 0 mm 6 m/s 746 mmHg 67%
    23:00 +3°C° 0.1 mm 6 m/s 745 mmHg 69%

    24 Octombrie, Miercuri

    Timp Temperatura Precipitaţii Vânt Presiune Umiditate
    00:00 +3°C° 0.1 mm 6 m/s 745 mmHg 71%
    01:00 +3°C° 0.1 mm 6 m/s 744 mmHg 73%
    02:00 +3°C° 0 mm 6 m/s 744 mmHg 76%
    03:00 +4°C° 0 mm 6 m/s 744 mmHg 78%
    04:00 +4°C° 0 mm 6 m/s 743 mmHg 80%
    05:00 +4°C° 0.1 mm 6 m/s 743 mmHg 81%
    06:00 +4°C° 0.1 mm 6 m/s 743 mmHg 81%
    07:00 +4°C° 0.1 mm 6 m/s 742 mmHg 82%
    08:00 +5°C° 0.1 mm 6 m/s 742 mmHg 81%
    09:00 +5°C° 0.1 mm 6 m/s 742 mmHg 79%
    10:00 +7°C° 0.1 mm 6 m/s 742 mmHg 78%
    11:00 +7°C° 0.4 mm 6 m/s 742 mmHg 79%
    12:00 +7°C° 0.4 mm 6 m/s 741 mmHg 80%
    13:00 +8°C° 0.4 mm 6 m/s 741 mmHg 80%
    14:00 +8°C° 0.5 mm 6 m/s 741 mmHg 81%
    15:00 +8°C° 0.5 mm 6 m/s 741 mmHg 81%
    16:00 +8°C° 0.5 mm 6 m/s 741 mmHg 82%
    17:00 +8°C° 0.2 mm 6 m/s 741 mmHg 82%
    18:00 +7°C° 0.2 mm 6 m/s 742 mmHg 83%
    19:00 +7°C° 0.2 mm 6 m/s 742 mmHg 84%
    20:00 +7°C° 0.1 mm 6 m/s 742 mmHg 83%
    21:00 +7°C° 0.1 mm 6 m/s 742 mmHg 82%
    22:00 +7°C° 0.1 mm 5 m/s 742 mmHg 82%
    23:00 +7°C° 0 mm 5 m/s 742 mmHg 83%

    25 Octombrie, Joi

    Timp Temperatura Precipitaţii Vânt Presiune Umiditate
    00:00 +7°C° 0 mm 5 m/s 742 mmHg 84%
    01:00 +6°C° 0 mm 5 m/s 742 mmHg 85%
    02:00 +6°C° 0.1 mm 5 m/s 742 mmHg 84%
    03:00 +6°C° 0.1 mm 5 m/s 742 mmHg 83%
    04:00 +6°C° 0.1 mm 5 m/s 742 mmHg 82%
    05:00 +6°C° 0 mm 5 m/s 742 mmHg 81%
    06:00 +7°C° 0 mm 5 m/s 742 mmHg 79%
    07:00 +7°C° 0 mm 5 m/s 742 mmHg 78%
    08:00 +7°C° 0 mm 6 m/s 742 mmHg 76%
    09:00 +8°C° 0 mm 6 m/s 742 mmHg 73%
    10:00 +8°C° 0 mm 7 m/s 742 mmHg 70%
    11:00 +9°C° 0 mm 7 m/s 741 mmHg 67%
    12:00 +10°C° 0 mm 7 m/s 741 mmHg 64%
    13:00 +11°C° 0 mm 8 m/s 741 mmHg 61%
    14:00 +10°C° 0 mm 8 m/s 740 mmHg 61%
    15:00 +10°C° 0 mm 7 m/s 740 mmHg 61%
    16:00 +10°C° 0 mm 7 m/s 740 mmHg 61%
    17:00 +10°C° 0 mm 7 m/s 740 mmHg 61%
    18:00 +10°C° 0 mm 7 m/s 739 mmHg 61%
    19:00 +9°C° 0 mm 8 m/s 739 mmHg 61%
    20:00 +9°C° 0 mm 8 m/s 739 mmHg 57%
    21:00 +9°C° 0 mm 8 m/s 739 mmHg 54%
    22:00 +7°C° 0 mm 8 m/s 739 mmHg 51%
    23:00 +7°C° 0 mm 8 m/s 739 mmHg 52%
    Arată mai mult